SCP
-0 -0 -0 -0 -0 -0 -0 -0 0 0 0 0 0 0 0 -0 0 0 0 0 0 0 0 0 0 0 0 0 0 0 0 0 0 0 0 0 0 0 0 0 0 0 0 0 0
-0 -0 -0 -0 -0 -0 -0 -0 -0 -0 -0 0 0 0 -0 -0 0 0 0 0 0 0 0 0 0 0 0 0 0 0 0 0 0 0 0 0 0 0 0 0 0 0 0 0 0
-0 -0 -0 -0 -0 -0 -0 -0 -0 -0 -0 -0 0 -0 -0 0 0 0 0 0 0 0 0 0 0 0 -0 -0 -0 0 0 0 0 -0 0 0 -0 0 0 0 0 0 0 0 0
-0 -0 -0 -0 -0 -0 -0 -0 -0 -0 -0 -0 0 -0 0 -0 0 0 0 0 0 0 0 0 0 0 0 -0 -0 0 0 0 -0 -0 0 0 0 0 0 0 0 0 0 0 0
-0 -0 0 0 0 -0 0 -0 -0 -0 -0 -0 -0 -0 0 0 0 0 0 0 0 0 0 0 0 0 -0 -0 -0 -0 -0 0 -0 0 0 -0 0 0 0 0 0 0 0 0 0
-0 -0 0 -0 0 -0 0 -0 -0 -0 -0 -0 -0 0 0 0 0 0 0 0 0 0 0 -0 -0 -0 -0 0 0 0 0 -0 -0 -0 0 0 0 0 0 0 0 0 0 0 0
0 0 -0 -0 -0 0 0 -0 -0 -0 0 -0 -0 0 0 -0 0 0 0 0 0 -0 -0 0 -0 -0 -0 0 0 0 0 -0 -0 -0 -0 -0 -0 0 -0 -0 0 0 0 0 0
0 0 -0 -0 -0 0 0 0 -0 -0 0 0 0 0 -0 0 0 0 0 0 0 0 -0 0 0 0 -0 0 0 -0 -0 0 -0 -0 -0 -0 -0 -0 -0 -0 -0 0 0 0 -0
0 0 -0 -0 -0 0 0 -0 0 0 0 -0 0 0 -0 -0 0 0 0 0 0 0 0 0 0 0 0 0 0 0 -0 -0 -0 -0 -0 -0 0 0 -0 -0 -0 -0 -0 -0 -0
0 0 -0 -0 -0 0 0 -0 -0 -0 0 0 0 0 -0 -0 0 0 0 0 0 0 0 0 0 0 0 0 0 0 -0 -0 0 -0 -0 -0 0 0 0 0 -0 -0 -0 -0 0
0 0 -0 -0 -0 0 0 0 0 0 0 0 0 0 -0 -0 0 0 0 0 -0 0 0 0 0 0 0 0 0 0 0 -0 -0 0 0 0 0 -0 -0 -0 -0 -0 -0 -0 -0
0 0 0 -0 -0 0 0 0 0 0 0 0 0 0 0 -0 -0 0 0 0 0 0 0 0 0 0 0 0 0 0 0 -0 -0 -0 -0 -0 -0 0 0 0 0 0 -0 -0 -0
0 0 0 0 0 0 0 0 -0 0 0 0 0 0 0 0 0 0 0 0 0 0 0 0 0 0 0 0 0 0 0 0 -0 -0 -0 -0 -0 -0 0 0 0 0 0 0 0
0 0 0 0 0 0 0 0 0 0 0 0 0 0 0 0 0 0 0 0 0 0 0 0 0 0 0 0 0 0 0 0 0 0 -0 0 -0 -0 0 0 0 0 -0 -0 -0
0 0 0 0 0 0 0 0 0 0 0 0 0 0 0 0 0 0 0 0 0 0 0 0 0 0 0 0 0 0 0 0 0 0 0 0 0 -0 -0 0 0 -0 -0 -0 0
0 0 0 0 0 0 0 0 0 0 0 0 0 0 0 0 0 0 0 0 0 0 0 0 0 0 0 0 0 0 0 0 0 0 0 0 0 0 -0 -0 -0 -0 -0 -0 0
0 0 0 0 0 0 0 0 0 0 0 0 0 0 0 0 0 0 0 0 0 0 0 0 0 0 0 0 0 0 0 0 0 0 0 0 0 -0 0 0 0 -0 -0 0 0
0 0 0 0 0 0 0 0 0 0 0 0 0 0 0 0 0 0 0 0 0 0 0 0 0 0 0 0 0 0 0 0 0 0 0 0 0 0 0 0 0 -0 -0 -0 -0
0 0 0 0 0 0 0 0 0 0 0 0 0 0 0 0 0 0 0 0 0 0 0 0 0 0 0 0 0 0 0 0 0 0 0 0 0 0 0 0 0 0 0 -0 0
0 0 0 0 0 0 0 0 0 0 0 0 0 0 0 0 0 0 0 0 0 0 0 0 0 0 0 0 0 0 0 0 0 0 0 0 0 0 0 0 0 0 0 0 0
0 0 0 0 0 0 0 0 0 0 0 0 0 0 0 0 0 0 0 0 0 0 0 0 0 0 0 0 0 0 0 0 0 0 0 0 0 0 0 0 0 0 0 0 0
0 0 0 0 0 0 0 0 0 0 0 0 0 0 0 0 0 0 0 0 0 0 0 0 0 0 0 0 0 0 0 0 0 0 0 0 0 0 0 0 0 0 0 0 0
0 0 0 0 0 0 0 0 0 0 0 0 0 0 0 0 0 0 0 0 0 0 0 0 0 0 0 0 0 0 0 0 0 0 0 0 0 0 0 0 0 0 0 0 0
0 0 0 0 0 0 0 0 0 0 0 0 0 0 0 0 0 0 0 0 0 0 0 0 0 0 0 0 0 0 0 0 0 0 0 0 0 0 0 0 0 0 0 0 0
0 0 0 0 0 0 0 0 0 0 0 0 0 0 0 0 0 0 0 0 0 0 0 0 0 0 0 0 0 0 0 0 0 0 0 0 0 0 0 0 0 0 0 0 0
0 0 0 0 0 0 0 0 0 0 0 0 0 0 0 0 0 0 0 0 0 0 0 0 0 0 0 0 0 0 0 0 0 0 0 0 0 0 0 0 0 0 0 0 0
0 0 0 0 0 0 0 0 0 0 0 0 0 0 0 0 0 0 0 0 0 0 0 0 0 0 0 0 0 0 0 0 0 0 0 0 0 0 0 0 0 0 0 0 0
Wind_Speed_500mb
33 34 35 37 38 41 44 35 26 28 37 33 6 5 14 44 50 68 84 56 50 40 23 14 15 6 10 32 27 9 9 10 10 7 11 9 8 33 32 52 62 30 35 20 25
22 25 28 30 34 37 43 38 29 26 26 42 35 11 3 11 60 68 49 47 33 38 39 20 24 25 31 27 23 20 9 10 14 21 24 42 40 24 24 40 47 45 38 33 35
17 18 20 24 26 32 33 40 43 39 24 23 42 41 12 16 48 67 55 55 47 47 35 2 11 30 43 32 28 15 12 31 37 50 57 48 55 18 31 24 29 25 39 42 46
13 16 18 19 23 26 29 27 31 42 46 30 12 47 39 7 12 58 59 44 49 41 37 10 19 22 18 22 26 20 36 27 25 19 31 24 27 41 40 19 22 27 33 34 39
11 13 14 19 23 23 29 36 41 43 36 46 32 38 42 71 39 52 54 51 49 56 55 41 65 47 30 38 66 38 41 51 63 71 62 69 49 31 38 34 39 44 49 49 51
10 9 10 16 18 15 17 17 12 15 27 25 49 35 48 63 42 40 46 56 65 63 62 52 64 63 42 27 26 38 50 30 29 39 32 38 25 7 24 35 42 39 29 33 36
10 7 6 12 19 17 14 15 23 28 20 18 29 42 74 36 36 36 49 61 63 71 69 46 23 50 46 46 49 53 32 30 19 16 19 22 24 11 20 28 28 18 21 29 33
7 8 2 5 11 13 14 13 9 17 29 20 11 32 30 27 31 18 30 35 48 49 53 53 47 49 17 56 18 6 8 7 8 16 10 10 2 8 15 10 2 12 18 27 28
7 8 1 4 13 16 19 28 30 13 14 16 15 12 14 15 22 24 26 26 31 35 45 16 45 33 21 14 8 5 8 14 10 13 9 2 10 19 18 12 4 8 9 13 18
6 4 9 15 13 15 18 18 20 21 6 5 13 9 17 22 24 20 21 21 19 17 16 20 20 12 21 8 1 8 11 11 11 11 30 22 16 18 17 17 14 12 8 9 11
3 2 12 6 9 23 25 8 6 6 49 31 22 12 10 13 29 22 17 18 22 28 11 31 22 13 18 12 18 24 17 15 6 15 14 13 10 12 20 18 18 14 12 8 8
4 5 11 12 19 23 16 8 17 13 25 21 20 22 26 18 12 27 19 19 25 9 6 14 18 13 11 19 22 17 15 6 6 11 12 12 10 13 29 27 26 22 17 13 7
7 8 10 12 13 6 8 16 13 10 10 11 15 13 10 19 19 29 16 13 16 21 18 15 4 18 11 14 16 12 9 5 8 6 7 12 3 12 22 25 32 27 22 17 11
8 8 8 7 2 9 11 9 6 1 9 8 9 9 9 5 11 25 20 9 12 9 10 14 15 10 13 9 7 8 7 9 8 4 4 7 6 12 14 15 31 37 34 29 23
13 9 9 6 2 8 6 2 4 1 8 4 3 4 14 12 4 17 15 23 9 8 5 2 6 10 12 4 3 7 2 4 5 6 8 6 7 10 17 15 23 47 49 41 34
17 12 11 13 10 7 9 2 2 13 10 2 2 2 5 9 6 5 8 13 9 14 25 5 3 5 2 6 5 5 1 4 7 6 6 9 9 7 12 15 12 43 56 49 44
19 16 12 12 9 12 14 9 11 8 10 7 6 2 6 5 5 5 5 7 6 9 2 3 6 3 6 2 5 3 6 6 9 8 8 3 6 17 13 13 24 48 63 55 51
23 22 18 16 11 18 20 11 9 7 13 2 5 4 5 4 1 2 5 1 4 3 6 9 8 6 7 2 7 4 7 9 10 2 8 8 9 10 9 19 18 33 49 55 56
25 25 22 19 19 20 19 6 18 17 13 20 4 6 6 4 7 3 9 9 12 10 11 9 2 1 4 4 1 5 1 5 14 2 7 6 12 9 6 10 19 22 51 62 58
27 24 28 22 20 29 7 14 11 8 20 7 18 11 15 10 10 11 11 7 11 8 2 11 6 4 1 3 5 2 9 6 6 4 6 9 10 10 14 21 19 33 43 60 58
26 11 17 30 29 23 9 16 12 18 21 15 18 11 12 16 17 11 12 4 13 11 3 8 6 1 4 11 11 2 2 7 7 7 10 2 11 12 15 18 28 49 54 54 56
25 5 18 36 18 4 8 14 12 14 24 10 9 7 18 18 15 11 19 9 29 32 16 9 11 6 10 2 3 5 8 10 9 10 4 6 13 8 10 18 41 45 50 49 53
19 18 23 48 8 6 7 6 16 14 15 15 19 11 6 16 1 12 8 4 25 22 16 16 3 5 13 4 6 9 10 6 8 6 12 12 12 6 10 13 24 38 41 45 48
22 3 18 44 20 14 13 11 11 25 12 14 12 13 9 7 7 12 5 4 15 13 8 16 5 15 15 12 11 10 10 9 11 8 8 15 10 12 17 18 37 41 42 47 50
26 18 27 9 15 25 22 21 16 14 15 23 1 14 19 11 6 11 7 6 4 13 10 8 14 8 6 6 7 9 11 25 20 19 16 15 20 36 23 29 54 45 48 53 52
31 19 18 10 17 44 27 22 27 10 26 16 14 29 22 20 29 30 20 14 14 18 13 9 7 5 8 7 5 12 13 23 32 21 22 31 23 35 15 26 36 48 48 58 61
66 54 27 24 15 15 15 42 45 26 34 43 52 16 28 40 18 3 22 27 32 27 20 15 13 8 12 5 7 19 33 38 19 15 23 19 46 8 13 38 49 39 47 62 63
Wind_Direction_500mb
83 80 73 69 61 49 43 48 51 44 34 28 18 304 27 44 37 40 40 16 12 13 27 35 351 37 48 56 43 60 61 55 35 65 103 162 118 65 57 58 58 60 56 72 78
75 77 73 66 65 53 48 47 48 40 36 37 40 13 311 88 43 35 34 29 15 349 1 345 36 61 58 32 32 49 64 51 60 96 91 73 79 84 68 47 49 54 76 81 82
66 63 60 60 62 53 60 56 54 42 36 40 43 28 42 109 44 18 38 32 10 356 352 77 31 70 48 53 25 45 92 100 87 100 94 89 68 100 89 44 39 31 52 60 72
48 55 57 52 65 63 63 54 49 50 47 43 44 59 52 123 61 30 35 32 18 18 28 120 65 69 69 57 61 98 65 94 112 97 88 80 90 69 73 93 75 72 71 78 70
46 48 54 62 70 79 69 63 72 58 52 48 65 68 71 69 47 51 51 40 48 43 44 71 79 78 88 92 75 68 84 87 94 88 84 93 71 79 72 89 88 77 69 63 60
33 45 59 55 61 76 71 53 27 14 31 57 63 72 74 71 55 58 58 52 49 44 52 70 96 102 80 79 71 118 108 112 99 93 96 86 53 67 74 86 83 77 67 68 66
21 20 82 53 61 78 73 58 52 51 64 47 57 63 65 65 55 67 69 61 56 54 66 61 103 107 103 96 121 125 108 116 111 124 139 89 41 37 106 99 88 62 52 55 60
17 15 88 55 71 74 35 13 21 68 52 33 55 66 74 55 59 79 70 64 59 61 61 62 80 80 83 124 135 157 155 79 142 190 188 182 114 213 145 160 34 57 49 52 56
10 12 85 94 86 71 64 60 34 225 4 40 42 61 56 53 68 65 56 47 59 79 82 84 54 96 119 133 107 211 90 121 75 2 123 2 150 187 185 180 162 92 70 50 44
12 45 129 118 88 30 359 342 41 52 144 61 51 47 55 40 48 55 59 55 61 91 69 62 49 50 31 54 205 134 100 48 77 36 74 92 122 168 197 191 168 151 122 97 75
8 124 172 187 319 345 349 344 12 50 66 70 60 64 57 71 49 34 73 103 67 67 83 39 60 28 317 40 78 89 90 97 97 146 78 99 139 176 174 179 182 177 159 140 74
305 244 231 265 301 327 0 55 73 115 82 66 70 67 47 45 68 60 74 69 43 72 70 53 43 323 13 34 79 84 96 58 36 100 92 157 177 185 187 200 197 190 191 182 154
297 291 266 280 303 324 101 94 84 87 87 50 48 40 28 50 46 16 38 79 70 58 43 96 230 320 70 31 66 52 70 99 128 85 69 124 213 206 214 208 199 205 206 203 202
293 280 259 296 287 158 132 70 23 3 74 343 3 18 18 57 51 39 51 64 48 133 103 73 3 75 66 72 7 69 357 109 125 77 157 116 263 229 209 211 203 205 209 211 208
274 275 243 225 114 180 187 27 12 111 16 295 9 68 52 76 77 34 49 69 84 23 76 249 34 33 71 290 263 156 287 69 85 93 75 329 62 277 151 226 223 215 215 215 212
269 270 250 240 246 223 190 166 114 41 264 178 119 166 89 47 59 48 59 79 122 78 46 102 45 63 163 283 39 144 85 343 40 97 39 241 123 258 186 212 210 214 218 216 211
273 269 255 236 223 197 171 142 37 126 338 251 196 119 69 38 45 48 42 27 139 98 67 63 349 27 357 349 347 27 86 5 8 15 210 66 50 245 224 208 200 201 212 210 213
269 267 262 245 216 178 166 60 114 215 218 13 107 89 147 160 85 45 116 3 258 133 111 144 314 353 344 56 165 66 143 147 188 210 259 3 237 253 192 185 172 209 208 205 210
257 260 259 249 226 193 171 101 199 196 157 151 73 163 225 221 144 138 203 202 191 189 143 131 234 205 19 6 4 251 175 144 102 53 47 231 272 288 195 203 201 182 201 202 209
251 251 251 237 209 188 103 225 210 169 129 167 179 160 187 204 160 173 188 190 188 201 240 196 89 173 254 301 351 284 153 63 4 101 289 288 279 241 224 223 220 213 200 206 210
241 243 229 207 186 180 180 224 204 180 168 161 203 161 202 183 182 198 202 195 173 163 155 144 93 320 49 208 188 166 178 47 117 132 168 225 262 217 218 208 206 214 210 207 209
211 197 208 186 168 203 176 195 178 181 191 175 162 150 181 172 178 207 207 212 172 158 163 192 130 161 214 273 343 280 219 158 127 246 229 145 272 253 235 236 214 219 219 218 219
204 206 200 185 168 228 271 239 201 150 197 180 194 186 149 175 177 206 188 111 171 167 165 187 257 48 339 337 5 227 203 176 111 82 205 140 259 233 225 224 208 219 221 221 223
205 170 182 201 220 176 155 219 215 206 190 176 156 118 109 156 43 198 175 184 190 190 190 163 150 170 196 201 133 193 205 177 136 132 188 222 244 248 232 231 228 225 222 219 220
222 230 196 198 240 206 177 174 174 191 214 183 303 213 162 148 110 199 176 128 196 203 194 165 203 159 256 208 157 198 188 183 199 209 183 226 208 247 205 221 236 235 230 223 223
195 217 204 196 190 194 205 192 205 191 157 218 218 199 190 167 191 199 149 186 186 177 162 190 242 106 305 344 316 254 236 208 221 248 267 261 271 244 217 211 242 247 242 231 232
218 221 235 232 169 162 198 218 227 166 217 217 203 140 203 220 178 162 178 171 163 157 180 155 141 124 251 29 25 286 212 211 202 209 214 208 237 148 208 223 239 242 237 230 235
Wind_Speed_850mb
33 34 35 37 38 41 44 35 26 28 37 33 6 5 14 44 50 68 84 56 50 40 23 14 15 6 10 32 27 9 9 10 10 7 11 9 8 33 32 52 62 30 35 20 25
22 25 28 30 34 37 43 38 29 26 26 42 35 11 3 11 60 68 49 47 33 38 39 20 24 25 31 27 23 20 9 10 14 21 24 42 40 24 24 40 47 45 38 33 35
17 18 20 24 26 32 33 40 43 39 24 23 42 41 12 16 48 67 55 55 47 47 35 2 11 30 43 32 28 15 12 31 37 50 57 48 55 18 31 24 29 25 39 42 46
13 16 18 19 23 26 29 27 31 42 46 30 12 47 39 7 12 58 59 44 49 41 37 10 19 22 18 22 26 20 36 27 25 19 31 24 27 41 40 19 22 27 33 34 39
11 13 14 19 23 23 29 36 41 43 36 46 32 38 42 71 39 52 54 51 49 56 55 41 65 47 30 38 66 38 41 51 63 71 62 69 49 31 38 34 39 44 49 49 51
10 9 10 16 18 15 17 17 12 15 27 25 49 35 48 63 42 40 46 56 65 63 62 52 64 63 42 27 26 38 50 30 29 39 32 38 25 7 24 35 42 39 29 33 36
10 7 6 12 19 17 14 15 23 28 20 18 29 42 74 36 36 36 49 61 63 71 69 46 23 50 46 46 49 53 32 30 19 16 19 22 24 11 20 28 28 18 21 29 33
7 8 2 5 11 13 14 13 9 17 29 20 11 32 30 27 31 18 30 35 48 49 53 53 47 49 17 56 18 6 8 7 8 16 10 10 2 8 15 10 2 12 18 27 28
7 8 1 4 13 16 19 28 30 13 14 16 15 12 14 15 22 24 26 26 31 35 45 16 45 33 21 14 8 5 8 14 10 13 9 2 10 19 18 12 4 8 9 13 18
6 4 9 15 13 15 18 18 20 21 6 5 13 9 17 22 24 20 21 21 19 17 16 20 20 12 21 8 1 8 11 11 11 11 30 22 16 18 17 17 14 12 8 9 11
3 2 12 6 9 23 25 8 6 6 49 31 22 12 10 13 29 22 17 18 22 28 11 31 22 13 18 12 18 24 17 15 6 15 14 13 10 12 20 18 18 14 12 8 8
4 5 11 12 19 23 16 8 17 13 25 21 20 22 26 18 12 27 19 19 25 9 6 14 18 13 11 19 22 17 15 6 6 11 12 12 10 13 29 27 26 22 17 13 7
7 8 10 12 13 6 8 16 13 10 10 11 15 13 10 19 19 29 16 13 16 21 18 15 4 18 11 14 16 12 9 5 8 6 7 12 3 12 22 25 32 27 22 17 11
8 8 8 7 2 9 11 9 6 1 9 8 9 9 9 5 11 25 20 9 12 9 10 14 15 10 13 9 7 8 7 9 8 4 4 7 6 12 14 15 31 37 34 29 23
13 9 9 6 2 8 6 2 4 1 8 4 3 4 14 12 4 17 15 23 9 8 5 2 6 10 12 4 3 7 2 4 5 6 8 6 7 10 17 15 23 47 49 41 34
17 12 11 13 10 7 9 2 2 13 10 2 2 2 5 9 6 5 8 13 9 14 25 5 3 5 2 6 5 5 1 4 7 6 6 9 9 7 12 15 12 43 56 49 44
19 16 12 12 9 12 14 9 11 8 10 7 6 2 6 5 5 5 5 7 6 9 2 3 6 3 6 2 5 3 6 6 9 8 8 3 6 17 13 13 24 48 63 55 51
23 22 18 16 11 18 20 11 9 7 13 2 5 4 5 4 1 2 5 1 4 3 6 9 8 6 7 2 7 4 7 9 10 2 8 8 9 10 9 19 18 33 49 55 56
25 25 22 19 19 20 19 6 18 17 13 20 4 6 6 4 7 3 9 9 12 10 11 9 2 1 4 4 1 5 1 5 14 2 7 6 12 9 6 10 19 22 51 62 58
27 24 28 22 20 29 7 14 11 8 20 7 18 11 15 10 10 11 11 7 11 8 2 11 6 4 1 3 5 2 9 6 6 4 6 9 10 10 14 21 19 33 43 60 58
26 11 17 30 29 23 9 16 12 18 21 15 18 11 12 16 17 11 12 4 13 11 3 8 6 1 4 11 11 2 2 7 7 7 10 2 11 12 15 18 28 49 54 54 56
25 5 18 36 18 4 8 14 12 14 24 10 9 7 18 18 15 11 19 9 29 32 16 9 11 6 10 2 3 5 8 10 9 10 4 6 13 8 10 18 41 45 50 49 53
19 18 23 48 8 6 7 6 16 14 15 15 19 11 6 16 1 12 8 4 25 22 16 16 3 5 13 4 6 9 10 6 8 6 12 12 12 6 10 13 24 38 41 45 48
22 3 18 44 20 14 13 11 11 25 12 14 12 13 9 7 7 12 5 4 15 13 8 16 5 15 15 12 11 10 10 9 11 8 8 15 10 12 17 18 37 41 42 47 50
26 18 27 9 15 25 22 21 16 14 15 23 1 14 19 11 6 11 7 6 4 13 10 8 14 8 6 6 7 9 11 25 20 19 16 15 20 36 23 29 54 45 48 53 52
31 19 18 10 17 44 27 22 27 10 26 16 14 29 22 20 29 30 20 14 14 18 13 9 7 5 8 7 5 12 13 23 32 21 22 31 23 35 15 26 36 48 48 58 61
66 54 27 24 15 15 15 42 45 26 34 43 52 16 28 40 18 3 22 27 32 27 20 15 13 8 12 5 7 19 33 38 19 15 23 19 46 8 13 38 49 39 47 62 63
Wind_Direction_850mb
83 80 73 69 61 49 43 48 51 44 34 28 18 304 27 44 37 40 40 16 12 13 27 35 351 37 48 56 43 60 61 55 35 65 103 162 118 65 57 58 58 60 56 72 78
75 77 73 66 65 53 48 47 48 40 36 37 40 13 311 88 43 35 34 29 15 349 1 345 36 61 58 32 32 49 64 51 60 96 91 73 79 84 68 47 49 54 76 81 82
66 63 60 60 62 53 60 56 54 42 36 40 43 28 42 109 44 18 38 32 10 356 352 77 31 70 48 53 25 45 92 100 87 100 94 89 68 100 89 44 39 31 52 60 72
48 55 57 52 65 63 63 54 49 50 47 43 44 59 52 123 61 30 35 32 18 18 28 120 65 69 69 57 61 98 65 94 112 97 88 80 90 69 73 93 75 72 71 78 70
46 48 54 62 70 79 69 63 72 58 52 48 65 68 71 69 47 51 51 40 48 43 44 71 79 78 88 92 75 68 84 87 94 88 84 93 71 79 72 89 88 77 69 63 60
33 45 59 55 61 76 71 53 27 14 31 57 63 72 74 71 55 58 58 52 49 44 52 70 96 102 80 79 71 118 108 112 99 93 96 86 53 67 74 86 83 77 67 68 66
21 20 82 53 61 78 73 58 52 51 64 47 57 63 65 65 55 67 69 61 56 54 66 61 103 107 103 96 121 125 108 116 111 124 139 89 41 37 106 99 88 62 52 55 60
17 15 88 55 71 74 35 13 21 68 52 33 55 66 74 55 59 79 70 64 59 61 61 62 80 80 83 124 135 157 155 79 142 190 188 182 114 213 145 160 34 57 49 52 56
10 12 85 94 86 71 64 60 34 225 4 40 42 61 56 53 68 65 56 47 59 79 82 84 54 96 119 133 107 211 90 121 75 2 123 2 150 187 185 180 162 92 70 50 44
12 45 129 118 88 30 359 342 41 52 144 61 51 47 55 40 48 55 59 55 61 91 69 62 49 50 31 54 205 134 100 48 77 36 74 92 122 168 197 191 168 151 122 97 75
8 124 172 187 319 345 349 344 12 50 66 70 60 64 57 71 49 34 73 103 67 67 83 39 60 28 317 40 78 89 90 97 97 146 78 99 139 176 174 179 182 177 159 140 74
305 244 231 265 301 327 0 55 73 115 82 66 70 67 47 45 68 60 74 69 43 72 70 53 43 323 13 34 79 84 96 58 36 100 92 157 177 185 187 200 197 190 191 182 154
297 291 266 280 303 324 101 94 84 87 87 50 48 40 28 50 46 16 38 79 70 58 43 96 230 320 70 31 66 52 70 99 128 85 69 124 213 206 214 208 199 205 206 203 202
293 280 259 296 287 158 132 70 23 3 74 343 3 18 18 57 51 39 51 64 48 133 103 73 3 75 66 72 7 69 357 109 125 77 157 116 263 229 209 211 203 205 209 211 208
274 275 243 225 114 180 187 27 12 111 16 295 9 68 52 76 77 34 49 69 84 23 76 249 34 33 71 290 263 156 287 69 85 93 75 329 62 277 151 226 223 215 215 215 212
269 270 250 240 246 223 190 166 114 41 264 178 119 166 89 47 59 48 59 79 122 78 46 102 45 63 163 283 39 144 85 343 40 97 39 241 123 258 186 212 210 214 218 216 211
273 269 255 236 223 197 171 142 37 126 338 251 196 119 69 38 45 48 42 27 139 98 67 63 349 27 357 349 347 27 86 5 8 15 210 66 50 245 224 208 200 201 212 210 213
269 267 262 245 216 178 166 60 114 215 218 13 107 89 147 160 85 45 116 3 258 133 111 144 314 353 344 56 165 66 143 147 188 210 259 3 237 253 192 185 172 209 208 205 210
257 260 259 249 226 193 171 101 199 196 157 151 73 163 225 221 144 138 203 202 191 189 143 131 234 205 19 6 4 251 175 144 102 53 47 231 272 288 195 203 201 182 201 202 209
251 251 251 237 209 188 103 225 210 169 129 167 179 160 187 204 160 173 188 190 188 201 240 196 89 173 254 301 351 284 153 63 4 101 289 288 279 241 224 223 220 213 200 206 210
241 243 229 207 186 180 180 224 204 180 168 161 203 161 202 183 182 198 202 195 173 163 155 144 93 320 49 208 188 166 178 47 117 132 168 225 262 217 218 208 206 214 210 207 209
211 197 208 186 168 203 176 195 178 181 191 175 162 150 181 172 178 207 207 212 172 158 163 192 130 161 214 273 343 280 219 158 127 246 229 145 272 253 235 236 214 219 219 218 219
204 206 200 185 168 228 271 239 201 150 197 180 194 186 149 175 177 206 188 111 171 167 165 187 257 48 339 337 5 227 203 176 111 82 205 140 259 233 225 224 208 219 221 221 223
205 170 182 201 220 176 155 219 215 206 190 176 156 118 109 156 43 198 175 184 190 190 190 163 150 170 196 201 133 193 205 177 136 132 188 222 244 248 232 231 228 225 222 219 220
222 230 196 198 240 206 177 174 174 191 214 183 303 213 162 148 110 199 176 128 196 203 194 165 203 159 256 208 157 198 188 183 199 209 183 226 208 247 205 221 236 235 230 223 223
195 217 204 196 190 194 205 192 205 191 157 218 218 199 190 167 191 199 149 186 186 177 162 190 242 106 305 344 316 254 236 208 221 248 267 261 271 244 217 211 242 247 242 231 232
218 221 235 232 169 162 198 218 227 166 217 217 203 140 203 220 178 162 178 171 163 157 180 155 141 124 251 29 25 286 212 211 202 209 214 208 237 148 208 223 239 242 237 230 235